Wind_Speed
16 16 17 18 19 20 20 21 22 22 22 21 21 21 22 23 24 25 26 26 26 26 26 26 26 27 27 27 27 27 27 27 27 27 27 27 27 28 29 30 30 31 32 33
16 17 18 19 19 19 20 20 20 21 21 21 20 20 21 21 22 23 24 24 24 24 24 25 25 25 25 25 25 25 25 25 25 25 25 25 26 27 28 28 29 29 30 30
16 17 18 17 18 18 18 19 21 20 20 20 19 19 20 21 21 22 22 23 23 23 23 23 23 23 23 24 24 23 23 22 23 23 24 25 25 26 26 27 28 28 28 27
16 16 17 16 17 18 18 18 19 19 19 19 18 19 19 20 21 21 21 21 21 21 21 21 21 21 21 21 22 22 22 22 22 23 23 24 24 25 25 26 26 27 26 25
16 17 16 16 16 17 18 18 18 18 19 19 19 19 20 20 20 20 20 20 20 20 20 20 20 20 20 20 21 21 21 22 22 22 23 23 24 24 24 25 25 25 24 24
16 17 16 15 17 18 18 19 18 18 19 19 19 19 19 19 19 19 19 18 18 18 18 19 19 19 19 19 20 20 21 21 21 22 22 23 23 23 23 23 23 23 23 22
18 17 16 16 17 18 18 17 18 18 19 19 19 19 19 18 18 18 18 17 17 18 18 18 18 18 18 18 19 20 20 21 21 21 21 21 22 22 22 22 22 22 22 22
20 19 17 17 18 18 18 17 18 18 19 19 19 19 19 19 18 18 17 17 17 17 17 17 17 17 18 18 18 19 19 20 20 20 20 20 21 21 21 21 21 21 21 21
21 20 19 19 19 19 18 18 18 18 19 19 19 19 19 19 18 18 18 18 17 17 17 17 18 18 18 18 18 19 19 19 19 19 19 20 20 20 21 21 21 21 22 22
21 21 21 21 21 21 21 20 19 19 19 19 19 19 19 19 18 18 18 18 18 17 17 18 18 18 19 18 18 18 18 18 19 19 20 20 20 21 21 21 22 22 23 24
21 22 22 22 22 22 22 22 21 21 20 20 20 20 20 20 19 19 19 18 18 18 18 18 18 18 18 18 18 18 19 19 19 20 20 21 21 22 22 23 23 24 25 25
22 22 22 22 23 23 23 23 22 22 22 21 21 21 21 20 20 20 20 19 19 19 18 18 18 18 18 18 18 19 19 20 20 21 21 22 22 23 24 24 25 25 26 27
23 23 23 23 23 24 24 24 23 23 23 22 22 22 22 22 22 21 21 20 20 20 19 19 19 19 19 19 19 20 20 21 22 22 23 23 24 25 25 26 26 27 28 29
23 23 23 23 24 24 24 24 24 24 24 24 23 23 23 23 22 22 22 21 21 20 20 20 20 20 20 20 20 21 22 22 23 24 24 25 25 26 26 27 28 29 29 30
22 23 23 23 24 24 25 25 25 25 24 24 24 24 24 23 23 22 22 22 22 22 22 22 21 21 21 21 22 22 23 24 24 25 25 26 27 27 27 28 29 30 30 31
22 23 23 23 24 24 25 25 25 25 25 25 25 25 24 24 23 23 23 23 23 23 24 24 24 24 23 24 24 24 24 25 25 26 26 27 27 28 29 29 30 31 32 33
22 22 23 23 24 24 25 25 25 25 25 25 25 25 25 24 24 24 24 24 24 24 24 25 25 25 25 26 26 26 26 26 27 27 27 28 28 29 30 31 32 32 33 34
22 22 23 23 23 24 24 25 25 25 25 24 24 24 25 25 25 25 25 25 25 25 25 26 26 27 27 27 27 28 28 28 28 28 29 29 30 31 32 32 33 34 34 35
22 22 22 22 23 23 24 24 24 25 25 25 25 25 25 25 25 25 25 25 25 26 26 26 27 27 28 28 29 29 29 29 29 30 30 31 31 32 32 33 34 34 35 36
20 21 22 22 22 23 24 24 24 25 25 25 25 25 25 25 25 25 25 25 26 26 26 27 27 27 28 29 29 29 30 30 30 31 31 31 32 32 33 33 34 35 37 38
18 19 19 20 21 22 23 24 25 25 25 25 25 25 25 26 26 26 26 26 26 26 27 27 27 28 28 29 29 30 30 30 31 31 31 32 32 32 33 34 35 36 38 39
16 16 16 17 18 20 21 22 23 24 24 25 25 25 25 25 26 26 26 26 26 26 27 27 28 28 28 28 29 29 30 30 31 31 31 32 32 33 34 35 36 38 39 40
15 15 15 16 16 17 18 19 20 21 22 22 23 24 24 25 25 26 26 26 27 27 27 27 28 28 28 28 29 29 30 31 32 32 32 33 34 35 36 37 38 39 39 40
16 16 16 16 16 16 17 17 18 20 20 21 22 22 23 24 25 25 26 26 26 27 27 28 29 29 29 30 31 31 32 33 33 33 34 35 35 36 37 38 38 39 39 40
18 17 17 17 17 17 17 18 18 19 20 21 22 22 23 23 24 25 26 27 27 27 28 29 29 30 31 31 32 32 33 33 33 34 35 35 36 37 38 39 39 40 40 41
19 19 19 19 20 20 20 20 20 20 21 21 22 23 24 24 25 26 26 27 28 29 29 30 31 31 32 33 34 34 34 35 35 36 37 37 38 39 39 40 40 40 40 41
22 23 23 23 23 23 23 23 23 23 24 24 24 25 26 26 27 28 29 30 30 31 32 32 33 34 34 35 36 37 37 38 38 39 39 39 40 40 40 40 41 41 40 41
Wind_Direction
232 230 229 230 232 233 234 234 234 235 238 239 239 238 239 239 241 242 244 247 250 253 255 258 260 263 265 267 269 271 273 275 278 282 284 287 291 296 299 302 306 309 310 311
235 234 235 235 234 235 236 235 236 235 237 238 238 238 239 241 243 246 248 250 252 255 257 259 261 263 266 268 270 272 273 275 278 280 284 288 293 299 301 303 306 310 313 315
238 238 237 235 236 236 236 235 235 234 234 237 238 239 240 243 246 248 250 251 252 255 257 259 262 264 267 268 269 270 272 275 278 281 285 290 295 299 302 304 307 310 311 314
239 238 237 236 235 236 235 235 236 234 235 238 240 242 244 246 247 248 249 250 252 254 256 259 262 265 267 268 268 268 270 275 279 283 286 291 295 299 302 305 308 311 313 314
241 240 238 237 237 238 237 237 237 237 240 242 244 246 247 248 248 248 248 250 252 254 257 260 264 267 268 269 268 268 270 276 281 283 286 291 295 299 302 305 308 311 313 314
245 244 242 239 240 241 240 240 240 242 244 245 245 247 248 248 248 248 248 250 253 255 258 262 264 266 269 269 269 270 273 279 282 284 287 291 295 298 302 305 309 311 314 315
248 248 246 243 243 242 242 243 243 244 245 245 246 247 248 248 247 247 248 251 253 257 260 264 266 267 270 272 273 274 276 280 283 285 288 292 295 298 302 306 308 311 312 314
250 250 248 246 245 245 247 246 245 245 245 246 247 247 248 248 247 248 250 253 256 259 261 264 266 269 272 275 276 277 279 281 283 286 289 292 296 298 302 305 307 310 311 312
250 251 249 247 246 246 246 246 246 246 246 246 246 248 248 247 247 249 252 256 257 260 262 264 267 270 274 276 277 278 280 283 284 287 290 294 296 299 302 305 307 309 311 312
249 249 248 247 246 246 246 246 246 246 246 246 247 248 248 248 250 252 255 257 258 261 263 266 269 272 273 275 277 278 281 283 285 288 291 295 297 299 302 304 306 308 310 311
249 249 248 247 247 246 245 244 245 247 248 248 248 249 249 250 251 254 256 257 259 261 264 266 269 272 274 275 277 279 281 283 285 288 292 294 297 299 302 304 306 308 309 310
248 249 249 248 247 246 246 245 245 245 247 248 248 248 249 250 252 255 256 258 260 262 264 267 269 272 275 277 278 279 281 283 284 287 290 294 297 299 302 304 305 307 308 309
248 249 250 249 248 246 246 245 246 247 247 248 248 249 249 252 254 256 257 258 260 262 264 267 269 271 274 278 279 280 281 283 285 288 290 292 296 298 301 303 305 306 308 309
248 249 250 250 249 247 245 245 246 247 248 248 248 250 252 253 255 256 257 257 259 262 264 266 268 270 273 277 279 281 282 284 286 287 289 292 294 297 300 302 304 306 308 309
250 250 251 251 250 248 246 246 246 247 248 248 248 250 252 253 254 256 257 258 259 261 264 265 266 269 273 276 279 282 283 285 287 288 290 292 294 297 299 301 303 305 307 309
251 251 250 250 250 249 247 246 247 248 248 250 250 251 252 254 254 256 258 259 260 261 263 264 266 269 272 276 279 281 283 285 287 289 291 292 294 296 298 301 303 305 306 308
252 252 251 250 250 250 249 248 248 249 250 251 252 253 253 254 255 256 258 259 261 262 264 265 267 269 271 275 278 281 283 285 287 288 290 292 294 296 298 301 302 304 306 308
254 253 253 252 251 251 250 248 248 249 250 251 252 253 254 255 256 257 258 260 262 263 265 266 268 270 272 275 278 280 282 284 286 287 289 291 293 296 298 300 302 304 306 307
255 254 253 252 250 249 248 248 248 249 250 251 252 254 255 256 257 258 259 260 262 265 266 268 269 271 273 275 277 279 281 283 284 286 288 290 292 295 297 299 301 304 306 307
255 254 254 253 252 250 249 249 250 251 252 253 254 254 255 256 257 259 260 261 263 265 267 268 269 272 274 276 277 279 280 282 284 285 288 289 291 293 296 299 302 304 306 307
256 255 255 255 254 252 252 252 252 253 253 254 255 255 256 257 258 259 261 263 264 265 267 268 270 273 275 277 278 279 280 282 285 287 288 289 290 293 296 299 301 304 305 307
256 257 258 258 257 256 255 254 254 254 254 254 255 256 257 258 258 259 261 263 265 266 268 269 272 274 277 279 279 280 281 283 285 287 288 289 291 293 296 299 301 304 305 307
257 260 262 262 261 259 257 255 254 254 255 255 256 257 258 259 260 261 262 264 266 268 269 270 273 275 277 279 280 281 283 284 285 286 288 289 291 293 295 298 301 303 304 306
258 260 262 263 263 262 260 258 257 256 257 258 259 260 261 261 262 263 264 265 267 269 270 272 273 275 277 279 280 282 283 284 285 286 287 289 291 293 295 298 300 302 303 305
257 259 260 261 262 263 263 263 261 261 261 262 262 263 263 264 264 265 266 267 268 270 272 274 275 277 278 279 281 282 284 285 285 287 289 290 292 294 296 298 299 300 302 304
256 258 260 263 264 265 266 266 265 265 265 266 266 267 267 267 267 268 268 269 270 271 273 275 276 278 279 280 281 282 283 284 286 287 289 290 292 294 296 297 299 300 301 304
260 261 263 265 266 266 266 267 267 268 268 269 270 271 271 271 271 271 271 272 272 274 275 277 278 279 280 281 281 282 283 284 285 287 288 289 291 293 294 296 297 299 301 303
Height
5636 5638 5641 5643 5645 5647 5649 5652 5654 5657 5659 5661 5663 5666 5668 5670 5673 5675 5677 5679 5681 5683 5684 5686 5686 5687 5688 5688 5688 5688 5687 5687 5686 5685 5683 5681 5679 5676 5672 5668 5664 5659 5654 5648
5634 5635 5637 5639 5642 5644 5646 5648 5650 5652 5655 5657 5659 5662 5664 5666 5668 5670 5672 5673 5675 5676 5678 5679 5680 5680 5681 5681 5681 5680 5680 5680 5679 5678 5676 5674 5672 5668 5665 5661 5657 5652 5647 5642
5631 5632 5634 5637 5639 5640 5642 5644 5646 5649 5652 5653 5656 5658 5660 5661 5663 5665 5666 5668 5669 5670 5671 5672 5673 5673 5674 5674 5674 5674 5673 5673 5672 5671 5669 5667 5665 5662 5658 5654 5650 5646 5641 5636
5628 5630 5631 5636 5635 5637 5639 5641 5643 5645 5647 5649 5651 5653 5655 5656 5658 5659 5661 5662 5663 5664 5665 5666 5667 5667 5667 5667 5667 5667 5667 5667 5666 5664 5663 5661 5658 5655 5652 5648 5644 5640 5635 5630
5625 5626 5628 5631 5632 5633 5635 5637 5639 5641 5643 5645 5647 5648 5650 5651 5653 5654 5656 5657 5658 5659 5660 5660 5661 5661 5661 5661 5661 5661 5661 5660 5659 5658 5656 5654 5652 5649 5646 5642 5638 5634 5630 5626
5621 5622 5625 5628 5628 5629 5632 5634 5636 5637 5639 5640 5642 5644 5646 5646 5648 5649 5650 5651 5652 5653 5654 5655 5655 5655 5655 5655 5655 5655 5655 5654 5653 5652 5650 5648 5646 5643 5640 5637 5633 5629 5625 5621
5617 5618 5621 5624 5624 5626 5629 5631 5632 5632 5634 5636 5637 5639 5641 5641 5643 5644 5645 5646 5647 5648 5649 5649 5650 5650 5650 5650 5650 5649 5649 5648 5647 5646 5644 5642 5640 5637 5634 5631 5628 5624 5621 5617
5613 5615 5619 5619 5620 5622 5624 5625 5627 5628 5629 5631 5632 5634 5635 5637 5638 5639 5640 5641 5642 5643 5643 5644 5644 5645 5644 5644 5644 5643 5643 5642 5641 5640 5638 5636 5634 5632 5629 5626 5623 5619 5616 5612
5609 5613 5613 5614 5615 5617 5619 5620 5622 5623 5625 5626 5628 5629 5630 5632 5633 5634 5635 5636 5637 5638 5638 5639 5639 5639 5639 5639 5638 5638 5637 5636 5635 5634 5633 5631 5629 5626 5624 5621 5618 5614 5611 5607
5603 5605 5607 5608 5610 5612 5614 5615 5617 5619 5620 5621 5623 5624 5625 5627 5628 5629 5630 5631 5632 5632 5633 5633 5634 5634 5634 5633 5633 5632 5632 5631 5630 5629 5627 5625 5623 5621 5618 5615 5612 5609 5605 5602
5597 5600 5601 5603 5605 5606 5608 5610 5612 5613 5615 5616 5618 5619 5620 5622 5623 5624 5625 5626 5627 5627 5628 5628 5628 5628 5628 5628 5627 5627 5626 5625 5624 5623 5621 5620 5617 5615 5612 5610 5606 5603 5600 5596
5592 5594 5595 5597 5599 5600 5602 5604 5606 5608 5609 5611 5612 5614 5615 5616 5618 5619 5620 5620 5621 5622 5622 5623 5623 5623 5623 5622 5622 5621 5620 5620 5618 5617 5616 5614 5612 5609 5606 5603 5600 5597 5593 5590
5586 5587 5589 5591 5592 5594 5596 5598 5600 5602 5603 5605 5606 5608 5609 5611 5612 5613 5614 5615 5615 5616 5616 5617 5617 5617 5617 5616 5616 5615 5615 5614 5612 5611 5609 5607 5605 5603 5600 5597 5594 5590 5587 5583
5579 5581 5582 5584 5586 5588 5590 5592 5593 5595 5597 5599 5600 5602 5603 5604 5605 5607 5608 5608 5609 5610 5610 5611 5611 5611 5611 5610 5610 5609 5608 5607 5606 5604 5603 5601 5599 5596 5593 5590 5587 5583 5580 5576
5573 5574 5576 5578 5579 5581 5583 5585 5587 5589 5590 5592 5594 5595 5597 5598 5599 5600 5601 5602 5603 5603 5604 5604 5605 5605 5604 5604 5604 5603 5602 5601 5599 5598 5596 5594 5591 5589 5586 5583 5580 5576 5572 5568
5566 5568 5569 5571 5573 5574 5576 5578 5580 5582 5583 5585 5587 5588 5590 5591 5592 5593 5594 5595 5596 5596 5597 5597 5598 5598 5598 5597 5597 5596 5595 5594 5592 5590 5589 5586 5584 5581 5579 5576 5572 5569 5565 5561
5560 5561 5563 5565 5566 5568 5569 5571 5573 5575 5576 5578 5580 5581 5582 5584 5585 5586 5587 5588 5588 5589 5590 5590 5590 5590 5590 5590 5589 5588 5587 5586 5585 5583 5581 5579 5576 5574 5571 5568 5564 5560 5557 5552
5553 5555 5556 5558 5559 5561 5562 5564 5566 5567 5569 5571 5572 5574 5575 5576 5577 5578 5579 5580 5581 5581 5582 5582 5582 5582 5582 5582 5581 5580 5579 5578 5577 5575 5573 5571 5568 5566 5563 5559 5556 5552 5548 5544
5547 5548 5550 5551 5552 5554 5555 5557 5559 5560 5562 5564 5565 5566 5568 5569 5570 5571 5572 5573 5573 5574 5574 5574 5574 5574 5574 5574 5573 5572 5571 5570 5568 5566 5565 5562 5560 5557 5554 5551 5547 5543 5539 5535
5541 5542 5543 5544 5546 5547 5548 5550 5552 5553 5555 5556 5558 5559 5560 5561 5562 5563 5564 5565 5565 5566 5566 5566 5566 5566 5565 5565 5564 5563 5562 5561 5559 5558 5556 5554 5551 5548 5545 5542 5539 5535 5530 5526
5535 5536 5537 5538 5539 5540 5541 5543 5544 5546 5547 5549 5550 5551 5552 5553 5554 5555 5556 5557 5557 5557 5558 5558 5558 5557 5557 5556 5555 5554 5553 5552 5551 5549 5547 5545 5542 5540 5537 5533 5530 5526 5521 5517
5530 5531 5531 5532 5533 5534 5535 5536 5537 5538 5540 5541 5542 5543 5545 5546 5546 5547 5548 5549 5549 5549 5549 5549 5549 5549 5548 5548 5547 5546 5544 5543 5541 5540 5538 5535 5533 5530 5527 5524 5520 5516 5512 5507
5525 5526 5527 5527 5528 5528 5529 5530 5530 5531 5533 5534 5535 5536 5537 5538 5539 5539 5540 5541 5541 5541 5541 5541 5541 5540 5540 5539 5538 5537 5535 5534 5532 5530 5528 5526 5524 5521 5518 5514 5511 5506 5502 5497
5520 5521 5522 5522 5523 5523 5524 5524 5525 5526 5526 5527 5528 5529 5530 5530 5531 5531 5532 5532 5532 5532 5532 5532 5532 5531 5531 5530 5529 5527 5526 5524 5523 5521 5519 5517 5514 5511 5508 5504 5501 5496 5492 5488
5515 5516 5517 5517 5518 5518 5519 5519 5520 5520 5521 5521 5522 5522 5522 5523 5523 5523 5524 5524 5524 5524 5523 5523 5522 5522 5521 5520 5519 5518 5516 5515 5513 5511 5509 5506 5504 5501 5498 5494 5490 5486 5482 5478
5510 5510 5511 5512 5512 5513 5513 5514 5514 5514 5514 5515 5515 5515 5515 5515 5515 5515 5515 5515 5515 5515 5514 5513 5513 5512 5511 5510 5509 5507 5506 5504 5502 5500 5498 5496 5493 5490 5487 5484 5480 5476 5472 5468
5503 5504 5504 5505 5505 5506 5506 5507 5507 5507 5507 5507 5507 5507 5507 5507 5507 5506 5506 5506 5505 5505 5504 5503 5503 5502 5500 5499 5498 5496 5495 5493 5491 5489 5487 5484 5482 5479 5476 5473 5469 5465 5461 5457